Time,TemperatureF,DewpointF,PressureIn,WindDirection,WindDirectionDegrees,WindSpeedMPH,WindSpeedGustMPH,Humidity,HourlyPrecipIn,Conditions,Clouds,dailyrainin,SoftwareType,DateUTC
2013-08-19 00:02:00,67.8,61.8,30.05,South,186,0.0,1.0,81,0.00,,BKN070,0.00,VWS V14.01,2013-08-19 05:02:00,
2013-08-19 00:07:00,67.7,61.7,30.05,South,186,0.0,1.0,81,0.00,,BKN070,0.00,VWS V14.01,2013-08-19 05:07:00,
2013-08-19 00:12:00,67.6,61.9,30.05,South,186,0.0,1.0,82,0.00,,BKN070,0.00,VWS V14.01,2013-08-19 05:12:00,
2013-08-19 00:17:00,67.4,61.7,30.05,South,186,1.0,1.0,82,0.00,,BKN070,0.00,VWS V14.01,2013-08-19 05:17:00,
2013-08-19 00:22:00,67.3,61.6,30.05,South,186,0.0,1.0,82,0.00,,BKN070,0.00,VWS V14.01,2013-08-19 05:22:00,
2013-08-19 00:28:00,67.1,61.4,30.04,South,186,2.0,2.0,82,0.00,,BKN070,0.00,VWS V14.01,2013-08-19 05:28:00,
2013-08-19 00:33:00,67.0,61.7,30.04,South,186,1.0,3.0,83,0.00,,BKN070,0.00,VWS V14.01,2013-08-19 05:33:00,
2013-08-19 00:38:00,66.9,61.6,30.04,South,186,1.0,2.0,83,0.00,,BKN070,0.00,VWS V14.01,2013-08-19 05:38:00,
2013-08-19 00:43:00,66.6,61.3,30.03,South,186,2.0,3.0,83,0.00,,BKN075,0.00,VWS V14.01,2013-08-19 05:43:00,
2013-08-19 00:48:00,66.3,61.3,30.03,South,186,0.0,3.0,84,0.00,,BKN075,0.00,VWS V14.01,2013-08-19 05:48:00,
2013-08-19 00:53:00,66.2,61.2,30.03,South,186,1.0,2.0,84,0.00,,BKN075,0.00,VWS V14.01,2013-08-19 05:53:00,
2013-08-19 00:58:00,66.1,61.1,30.03,South,186,0.0,3.0,84,0.00,,BKN075,0.00,VWS V14.01,2013-08-19 05:58:00,
2013-08-19 01:03:00,66.1,61.1,30.03,South,186,1.0,2.0,84,0.00,,BKN075,0.00,VWS V14.01,2013-08-19 06:03:00,
2013-08-19 01:08:00,66.1,61.1,30.03,South,186,3.0,3.0,84,0.00,,BKN075,0.00,VWS V14.01,2013-08-19 06:08:00,
2013-08-19 01:13:00,66.1,61.1,30.02,South,186,1.0,3.0,84,0.00,,BKN075,0.00,VWS V14.01,2013-08-19 06:13:00,
2013-08-19 01:18:00,65.9,60.9,30.02,South,186,2.0,3.0,84,0.00,,BKN075,0.00,VWS V14.01,2013-08-19 06:18:00,
2013-08-19 01:23:00,65.9,61.3,30.02,South,186,1.0,2.0,85,0.00,,BKN075,0.00,VWS V14.01,2013-08-19 06:23:00,
2013-08-19 01:28:00,65.7,61.1,30.02,South,186,0.0,2.0,85,0.00,,BKN075,0.00,VWS V14.01,2013-08-19 06:28:00,
2013-08-19 01:33:00,65.7,61.1,30.01,South,186,2.0,2.0,85,0.00,,BKN075,0.00,VWS V14.01,2013-08-19 06:33:00,
2013-08-19 01:38:00,65.6,61.3,30.01,South,186,2.0,3.0,86,0.00,,BKN075,0.00,VWS V14.01,2013-08-19 06:38:00,
2013-08-19 01:43:00,65.5,61.2,30.01,South,186,2.0,2.0,86,0.00,,BKN250,0.00,VWS V14.01,2013-08-19 06:43:00,
2013-08-19 01:48:00,65.4,61.1,30.01,South,186,3.0,4.0,86,0.00,,BKN250,0.00,VWS V14.01,2013-08-19 06:48:00,
2013-08-19 01:53:00,65.4,61.1,30.01,South,186,3.0,3.0,86,0.00,,BKN250,0.00,VWS V14.01,2013-08-19 06:53:00,
2013-08-19 01:58:00,65.3,61.0,30.01,South,183,3.0,4.0,86,0.00,,BKN250,0.00,VWS V14.01,2013-08-19 06:58:00,
2013-08-19 02:03:00,65.2,61.2,30.01,South,188,3.0,4.0,87,0.00,,BKN250,0.00,VWS V14.01,2013-08-19 07:03:00,
2013-08-19 02:08:00,65.2,61.2,30.00,South,183,3.0,6.0,87,0.00,,BKN250,0.00,VWS V14.01,2013-08-19 07:08:00,
2013-08-19 02:13:00,65.2,61.2,30.00,South,189,2.0,5.0,87,0.00,,BKN250,0.00,VWS V14.01,2013-08-19 07:13:00,
2013-08-19 02:18:00,65.2,61.2,30.00,South,190,1.0,4.0,87,0.00,,BKN250,0.00,VWS V14.01,2013-08-19 07:18:00,
2013-08-19 02:23:00,65.1,61.1,30.00,South,185,4.0,4.0,87,0.00,,BKN250,0.00,VWS V14.01,2013-08-19 07:23:00,
2013-08-19 02:28:00,65.1,61.1,30.00,South,185,1.0,2.0,87,0.00,,BKN250,0.00,VWS V14.01,2013-08-19 07:28:00,
2013-08-19 02:33:00,65.0,61.0,30.00,South,185,1.0,3.0,87,0.00,,BKN250,0.00,VWS V14.01,2013-08-19 07:33:00,
2013-08-19 02:38:00,65.0,61.0,30.00,South,185,2.0,3.0,87,0.00,,BKN250,0.00,VWS V14.01,2013-08-19 07:38:00,
2013-08-19 02:43:00,64.9,60.6,30.00,South,185,2.0,2.0,86,0.00,,BKN250,0.00,VWS V14.01,2013-08-19 07:43:00,
2013-08-19 02:48:00,64.8,60.5,30.00,South,185,0.0,3.0,86,0.00,,BKN250,0.00,VWS V14.01,2013-08-19 07:48:00,
2013-08-19 02:53:00,64.7,60.4,30.00,South,185,3.0,3.0,86,0.00,,BKN250,0.00,VWS V14.01,2013-08-19 07:53:00,
2013-08-19 02:58:00,64.7,60.8,30.00,South,185,2.0,3.0,87,0.00,,BKN250,0.00,VWS V14.01,2013-08-19 07:58:00,
2013-08-19 03:03:00,64.7,60.8,30.00,South,185,1.0,2.0,87,0.00,,BKN250,0.00,VWS V14.01,2013-08-19 08:03:00,
2013-08-19 03:08:00,64.7,60.8,30.01,South,185,2.0,3.0,87,0.00,,BKN250,0.00,VWS V14.01,2013-08-19 08:08:00,
2013-08-19 03:13:00,64.7,60.8,30.01,South,185,2.0,3.0,87,0.00,,BKN250,0.00,VWS V14.01,2013-08-19 08:13:00,
2013-08-19 03:18:00,64.7,60.8,30.01,South,185,3.0,3.0,87,0.00,,BKN250,0.00,VWS V14.01,2013-08-19 08:18:00,
2013-08-19 03:23:00,64.7,60.8,30.01,South,184,4.0,4.0,87,0.00,,BKN250,0.00,VWS V14.01,2013-08-19 08:23:00,
2013-08-19 03:28:00,64.7,60.4,30.01,South,184,1.0,3.0,86,0.00,,BKN250,0.00,VWS V14.01,2013-08-19 08:28:00,
2013-08-19 03:33:00,64.7,60.4,30.01,South,184,2.0,3.0,86,0.00,,BKN250,0.00,VWS V14.01,2013-08-19 08:33:00,
2013-08-19 03:44:00,64.7,60.4,30.01,South,184,2.0,3.0,86,0.00,,BKN250,0.00,VWS V14.01,2013-08-19 08:44:00,
2013-08-19 03:49:00,64.7,60.4,30.01,South,184,2.0,2.0,86,0.00,,BKN250,0.00,VWS V14.01,2013-08-19 08:49:00,
2013-08-19 03:54:00,64.6,60.7,30.01,South,183,1.0,2.0,87,0.00,,BKN250,0.00,VWS V14.01,2013-08-19 08:54:00,
2013-08-19 03:59:00,64.5,60.5,30.01,South,183,1.0,2.0,87,0.00,,BKN250,0.00,VWS V14.01,2013-08-19 08:59:00,
2013-08-19 04:04:00,64.5,60.5,30.01,South,183,0.0,1.0,87,0.00,,BKN250,0.00,VWS V14.01,2013-08-19 09:04:00,
2013-08-19 04:09:00,64.5,60.5,30.01,South,183,0.0,1.0,87,0.00,,BKN250,0.00,VWS V14.01,2013-08-19 09:09:00,
2013-08-19 04:14:00,64.5,60.5,30.01,South,183,2.0,2.0,87,0.00,,BKN250,0.00,VWS V14.01,2013-08-19 09:14:00,
2013-08-19 04:19:00,64.6,60.7,30.01,South,183,0.0,2.0,87,0.00,,BKN250,0.00,VWS V14.01,2013-08-19 09:19:00,
2013-08-19 04:24:00,64.6,60.7,30.01,South,183,2.0,2.0,87,0.00,,BKN250,0.00,VWS V14.01,2013-08-19 09:24:00,
2013-08-19 04:29:00,64.7,60.8,30.01,South,183,0.0,3.0,87,0.00,,BKN250,0.00,VWS V14.01,2013-08-19 09:29:00,
2013-08-19 04:34:00,64.9,60.9,30.01,South,183,0.0,2.0,87,0.00,,BKN250,0.00,VWS V14.01,2013-08-19 09:34:00,
2013-08-19 04:39:00,64.9,60.9,30.01,South,183,2.0,2.0,87,0.00,,BKN250,0.00,VWS V14.01,2013-08-19 09:39:00,
2013-08-19 04:44:00,64.9,60.9,30.01,South,183,2.0,3.0,87,0.00,,BKN250,0.00,VWS V14.01,2013-08-19 09:44:00,
2013-08-19 04:49:00,64.9,60.9,30.01,South,183,2.0,3.0,87,0.00,,BKN250,0.00,VWS V14.01,2013-08-19 09:49:00,
2013-08-19 04:54:00,64.9,60.9,30.01,South,183,4.0,5.0,87,0.00,,BKN250,0.00,VWS V14.01,2013-08-19 09:54:00,
2013-08-19 04:59:00,64.9,60.9,30.01,South,183,2.0,4.0,87,0.00,,BKN250,0.00,VWS V14.01,2013-08-19 09:59:00,
2013-08-19 05:04:00,64.8,60.8,30.01,South,183,3.0,3.0,87,0.00,,BKN250,0.00,VWS V14.01,2013-08-19 10:04:00,
2013-08-19 05:09:00,64.7,60.8,30.01,South,186,3.0,4.0,87,0.00,,BKN250,0.00,VWS V14.01,2013-08-19 10:09:00,
2013-08-19 05:14:00,64.6,60.7,30.00,South,186,2.0,3.0,87,0.00,,BKN250,0.00,VWS V14.01,2013-08-19 10:14:00,
2013-08-19 05:19:00,64.6,60.7,30.00,South,186,1.0,2.0,87,0.00,,BKN250,0.00,VWS V14.01,2013-08-19 10:19:00,
2013-08-19 05:24:00,64.6,60.7,30.01,South,186,2.0,2.0,87,0.00,,BKN250,0.00,VWS V14.01,2013-08-19 10:24:00,
2013-08-19 05:29:00,64.6,61.0,30.00,South,186,2.0,3.0,88,0.00,,BKN250,0.00,VWS V14.01,2013-08-19 10:29:00,
2013-08-19 05:34:00,64.5,60.9,30.00,South,183,4.0,4.0,88,0.00,,BKN250,0.00,VWS V14.01,2013-08-19 10:34:00,
2013-08-19 05:39:00,64.5,60.9,30.00,South,183,1.0,3.0,88,0.00,,BKN250,0.00,VWS V14.01,2013-08-19 10:39:00,
2013-08-19 05:44:00,64.3,60.7,30.00,South,183,2.0,3.0,88,0.00,,BKN250,0.00,VWS V14.01,2013-08-19 10:44:00,
2013-08-19 05:49:00,64.2,60.6,30.00,South,183,2.0,3.0,88,0.00,,BKN250,0.00,VWS V14.01,2013-08-19 10:49:00,
2013-08-19 05:54:00,64.0,60.4,30.00,South,176,3.0,4.0,88,0.00,,BKN250,0.00,VWS V14.01,2013-08-19 10:54:00,
2013-08-19 05:59:00,63.9,60.6,30.00,South,174,3.0,3.0,89,0.00,,BKN250,0.00,VWS V14.01,2013-08-19 10:59:00,
2013-08-19 06:05:00,63.8,60.5,30.01,South,174,2.0,2.0,89,0.00,,BKN250,0.00,VWS V14.01,2013-08-19 11:05:00,
2013-08-19 06:10:00,63.8,60.5,30.01,South,174,1.0,3.0,89,0.00,,BKN250,0.00,VWS V14.01,2013-08-19 11:10:00,
2013-08-19 06:15:00,63.7,60.4,30.01,South,174,2.0,3.0,89,0.00,,BKN250,0.00,VWS V14.01,2013-08-19 11:15:00,
2013-08-19 06:20:00,63.7,60.4,30.00,South,174,0.0,0.0,89,0.00,,BKN250,0.00,VWS V14.01,2013-08-19 11:20:00,
2013-08-19 06:25:00,63.7,60.4,30.01,South,174,2.0,2.0,89,0.00,,BKN250,0.00,VWS V14.01,2013-08-19 11:25:00,
2013-08-19 06:30:00,63.7,60.4,30.01,South,174,1.0,2.0,89,0.00,,BKN250,0.00,VWS V14.01,2013-08-19 11:30:00,
2013-08-19 06:35:00,63.7,60.4,30.01,South,174,3.0,3.0,89,0.00,,BKN250,0.00,VWS V14.01,2013-08-19 11:35:00,
2013-08-19 06:40:00,63.8,60.5,30.01,South,174,0.0,2.0,89,0.00,,BKN250,0.00,VWS V14.01,2013-08-19 11:40:00,
2013-08-19 06:45:00,63.8,60.5,30.01,South,174,2.0,2.0,89,0.00,,BKN250,0.00,VWS V14.01,2013-08-19 11:45:00,
2013-08-19 06:50:00,63.9,60.6,30.01,South,174,1.0,2.0,89,0.00,,BKN250,0.00,VWS V14.01,2013-08-19 11:50:00,
2013-08-19 06:55:00,63.9,60.9,30.01,South,174,0.0,1.0,90,0.00,,BKN250,0.00,VWS V14.01,2013-08-19 11:55:00,
2013-08-19 07:00:00,63.9,60.9,30.01,South,174,0.0,1.0,90,0.00,,BKN250,0.00,VWS V14.01,2013-08-19 12:00:00,
2013-08-19 07:05:00,64.0,61.0,30.01,South,174,2.0,3.0,90,0.00,,BKN250,0.00,VWS V14.01,2013-08-19 12:05:00,
2013-08-19 07:10:00,64.1,61.1,30.01,South,174,0.0,2.0,90,0.00,,BKN250,0.00,VWS V14.01,2013-08-19 12:10:00,
2013-08-19 07:15:00,64.2,61.2,30.01,South,174,1.0,2.0,90,0.00,,BKN250,0.00,VWS V14.01,2013-08-19 12:15:00,
2013-08-19 07:20:00,64.3,61.3,30.01,South,174,2.0,3.0,90,0.00,,BKN250,0.00,VWS V14.01,2013-08-19 12:20:00,
2013-08-19 07:25:00,64.3,61.3,30.01,South,174,1.0,2.0,90,0.00,,BKN250,0.00,VWS V14.01,2013-08-19 12:25:00,
2013-08-19 07:30:00,64.3,61.3,30.01,South,174,1.0,3.0,90,0.00,,BKN250,0.00,VWS V14.01,2013-08-19 12:30:00,
2013-08-19 07:35:00,64.3,61.6,30.01,South,174,1.0,2.0,91,0.00,,BKN250,0.00,VWS V14.01,2013-08-19 12:35:00,
2013-08-19 07:40:00,64.3,61.6,30.01,South,174,0.0,2.0,91,0.00,,BKN250,0.00,VWS V14.01,2013-08-19 12:40:00,
2013-08-19 07:45:00,64.4,61.7,30.01,South,174,1.0,3.0,91,0.00,,BKN250,0.00,VWS V14.01,2013-08-19 12:45:00,
2013-08-19 07:50:00,64.5,61.5,30.01,South,174,2.0,3.0,90,0.00,,BKN250,0.00,VWS V14.01,2013-08-19 12:50:00,
2013-08-19 07:55:00,64.5,61.8,30.01,South,174,1.0,3.0,91,0.00,,OVC250,0.00,VWS V14.01,2013-08-19 12:55:00,
2013-08-19 08:00:00,64.6,61.9,30.01,South,174,3.0,3.0,91,0.00,,OVC250,0.00,VWS V14.01,2013-08-19 13:00:00,
2013-08-19 08:05:00,64.9,62.2,30.01,SSE,164,3.0,5.0,91,0.00,,OVC250,0.00,VWS V14.01,2013-08-19 13:05:00,
2013-08-19 08:10:00,65.2,62.5,30.01,South,177,5.0,5.0,91,0.00,,OVC250,0.00,VWS V14.01,2013-08-19 13:10:00,
2013-08-19 08:15:00,65.8,63.1,30.01,South,180,5.0,5.0,91,0.00,,OVC250,0.00,VWS V14.01,2013-08-19 13:15:00,
2013-08-19 08:20:00,66.2,63.2,30.01,South,169,5.0,5.0,90,0.00,,OVC250,0.00,VWS V14.01,2013-08-19 13:20:00,
2013-08-19 08:25:00,66.5,63.2,30.01,SSE,162,3.0,5.0,89,0.00,,OVC250,0.00,VWS V14.01,2013-08-19 13:25:00,
2013-08-19 08:30:00,66.8,63.5,30.01,South,175,6.0,6.0,89,0.00,,OVC250,0.00,VWS V14.01,2013-08-19 13:30:00,
2013-08-19 08:35:00,67.1,63.4,30.01,SSW,204,3.0,5.0,88,0.00,,OVC250,0.00,VWS V14.01,2013-08-19 13:35:00,
2013-08-19 08:40:00,67.3,63.6,30.01,South,181,4.0,6.0,88,0.00,,OVC250,0.00,VWS V14.01,2013-08-19 13:40:00,
2013-08-19 08:45:00,67.7,64.0,30.01,SSW,196,4.0,6.0,88,0.00,,OVC250,0.00,VWS V14.01,2013-08-19 13:45:00,
2013-08-19 08:50:00,68.1,64.1,30.01,South,189,4.0,6.0,87,0.00,,OVC250,0.00,VWS V14.01,2013-08-19 13:50:00,
2013-08-19 08:55:00,68.5,64.2,30.02,South,187,3.0,6.0,86,0.00,,OVC250,0.00,VWS V14.01,2013-08-19 13:55:00,
2013-08-19 09:00:00,69.0,64.3,30.01,SW,216,5.0,6.0,85,0.00,,OVC250,0.00,VWS V14.01,2013-08-19 14:00:00,
2013-08-19 09:05:00,69.1,64.4,30.02,South,170,4.0,7.0,85,0.00,,OVC250,0.00,VWS V14.01,2013-08-19 14:05:00,
2013-08-19 09:10:00,69.2,64.5,30.02,SSE,149,6.0,6.0,85,0.00,,OVC250,0.00,VWS V14.01,2013-08-19 14:10:00,
2013-08-19 09:15:00,69.6,64.6,30.02,South,178,6.0,6.0,84,0.00,,OVC250,0.00,VWS V14.01,2013-08-19 14:15:00,
2013-08-19 09:20:00,70.1,65.4,30.02,SSE,166,6.0,6.0,85,0.00,,OVC250,0.00,VWS V14.01,2013-08-19 14:20:00,
2013-08-19 09:25:00,70.3,64.6,30.02,South,182,8.0,9.0,82,0.00,,OVC250,0.00,VWS V14.01,2013-08-19 14:25:00,
2013-08-19 09:30:00,70.3,64.2,30.02,South,186,5.0,8.0,81,0.00,,OVC250,0.00,VWS V14.01,2013-08-19 14:30:00,
2013-08-19 09:35:00,70.7,64.9,30.02,South,174,8.0,8.0,82,0.00,,OVC250,0.00,VWS V14.01,2013-08-19 14:35:00,
2013-08-19 09:40:00,70.8,64.7,30.02,South,170,7.0,8.0,81,0.00,,SCT250,0.00,VWS V14.01,2013-08-19 14:40:00,
2013-08-19 09:45:00,71.3,65.2,30.02,South,186,5.0,8.0,81,0.00,,SCT250,0.00,VWS V14.01,2013-08-19 14:45:00,
2013-08-19 09:50:00,71.8,65.3,30.02,SSE,164,4.0,9.0,80,0.00,,SCT250,0.00,VWS V14.01,2013-08-19 14:50:00,
2013-08-19 09:56:00,72.5,65.3,30.01,South,191,4.0,9.0,78,0.00,,SCT250,0.00,VWS V14.01,2013-08-19 14:56:00,
2013-08-19 10:01:00,72.9,66.0,30.02,South,189,4.0,5.0,79,0.00,,SCT250,0.00,VWS V14.01,2013-08-19 15:01:00,
2013-08-19 10:06:00,73.6,66.3,30.01,South,172,6.0,9.0,78,0.00,,SCT250,0.00,VWS V14.01,2013-08-19 15:06:00,
2013-08-19 10:11:00,74.0,66.0,30.01,SW,231,3.0,9.0,76,0.00,,SCT250,0.00,VWS V14.01,2013-08-19 15:11:00,
2013-08-19 10:16:00,74.3,66.6,30.01,South,186,6.0,10.0,77,0.00,,SCT250,0.00,VWS V14.01,2013-08-19 15:16:00,
2013-08-19 10:21:00,74.4,66.3,30.01,South,170,9.0,11.0,76,0.00,,SCT250,0.00,VWS V14.01,2013-08-19 15:21:00,
2013-08-19 10:26:00,74.7,66.6,30.01,SSE,164,8.0,8.0,76,0.00,,SCT250,0.00,VWS V14.01,2013-08-19 15:26:00,
2013-08-19 10:31:00,74.8,66.0,30.01,South,176,7.0,12.0,74,0.00,,SCT250,0.00,VWS V14.01,2013-08-19 15:31:00,
2013-08-19 10:36:00,75.2,66.3,30.01,SSW,213,5.0,8.0,74,0.00,,SCT250,0.00,VWS V14.01,2013-08-19 15:36:00,
2013-08-19 10:41:00,75.5,66.6,30.01,South,189,4.0,10.0,74,0.00,,SCT250,0.00,VWS V14.01,2013-08-19 15:41:00,
2013-08-19 10:46:00,75.7,67.2,30.01,South,180,10.0,10.0,75,0.00,,SCT250,0.00,VWS V14.01,2013-08-19 15:46:00,
2013-08-19 10:51:00,75.7,66.8,30.01,SSW,205,7.0,7.0,74,0.00,,SCT250,0.00,VWS V14.01,2013-08-19 15:51:00,
2013-08-19 10:56:00,75.3,66.1,30.01,SSW,211,6.0,10.0,73,0.00,,SCT250,0.00,VWS V14.01,2013-08-19 15:56:00,
2013-08-19 11:01:00,75.6,66.7,30.01,South,183,10.0,12.0,74,0.00,,SCT250,0.00,VWS V14.01,2013-08-19 16:01:00,
2013-08-19 11:06:00,76.1,66.8,30.01,SSW,199,7.0,13.0,73,0.00,,SCT250,0.00,VWS V14.01,2013-08-19 16:06:00,
2013-08-19 11:11:00,76.4,67.1,30.01,SSW,208,6.0,11.0,73,0.00,,SCT250,0.00,VWS V14.01,2013-08-19 16:11:00,
2013-08-19 11:16:00,76.4,66.7,30.01,South,191,7.0,12.0,72,0.00,,SCT250,0.00,VWS V14.01,2013-08-19 16:16:00,
2013-08-19 11:21:00,76.4,67.9,30.01,SE,134,5.0,10.0,75,0.00,,SCT250,0.00,VWS V14.01,2013-08-19 16:21:00,
2013-08-19 11:26:00,76.5,68.4,30.01,SSE,168,11.0,11.0,76,0.00,,SCT250,0.00,VWS V14.01,2013-08-19 16:26:00,
2013-08-19 11:31:00,76.9,68.8,30.01,South,189,7.0,9.0,76,0.00,,SCT250,0.00,VWS V14.01,2013-08-19 16:31:00,
2013-08-19 11:36:00,77.3,67.6,30.01,SSE,158,11.0,12.0,72,0.00,,SCT250,0.00,VWS V14.01,2013-08-19 16:36:00,
2013-08-19 11:41:00,77.5,68.6,30.01,South,176,8.0,10.0,74,0.00,,SCT250,0.00,VWS V14.01,2013-08-19 16:41:00,
2013-08-19 11:46:00,77.8,68.1,30.01,South,181,6.0,10.0,72,0.00,,SCT250,0.00,VWS V14.01,2013-08-19 16:46:00,
2013-08-19 11:51:00,78.2,68.0,30.00,SSE,163,7.0,9.0,71,0.00,,SCT250,0.00,VWS V14.01,2013-08-19 16:51:00,
2013-08-19 11:56:00,78.5,67.9,30.00,South,190,5.0,8.0,70,0.00,,SCT250,0.00,VWS V14.01,2013-08-19 16:56:00,
2013-08-19 12:01:00,78.5,67.9,30.00,South,191,6.0,12.0,70,0.00,,SCT250,0.00,VWS V14.01,2013-08-19 17:01:00,
2013-08-19 12:06:00,78.2,68.0,30.00,SSE,164,10.0,13.0,71,0.00,,SCT250,0.00,VWS V14.01,2013-08-19 17:06:00,
2013-08-19 12:11:00,78.5,67.9,30.00,SW,216,4.0,11.0,70,0.00,,SCT250,0.00,VWS V14.01,2013-08-19 17:11:00,
2013-08-19 12:17:00,79.2,68.6,30.00,South,179,18.0,18.0,70,0.00,,SCT250,0.00,VWS V14.01,2013-08-19 17:17:00,
2013-08-19 12:22:00,79.0,68.0,29.99,SSW,192,7.0,13.0,69,0.00,,SCT250,0.00,VWS V14.01,2013-08-19 17:22:00,
2013-08-19 12:27:00,79.2,68.2,29.99,South,189,7.0,12.0,69,0.00,,SCT250,0.00,VWS V14.01,2013-08-19 17:27:00,
2013-08-19 12:32:00,79.3,67.8,29.99,South,190,7.0,9.0,68,0.00,,SCT250,0.00,VWS V14.01,2013-08-19 17:32:00,
2013-08-19 12:37:00,79.5,69.7,29.99,South,189,6.0,10.0,72,0.00,,SCT250,0.00,VWS V14.01,2013-08-19 17:37:00,
2013-08-19 12:42:00,79.7,69.1,29.99,SSE,164,13.0,14.0,70,0.00,,SCT250,0.00,VWS V14.01,2013-08-19 17:42:00,
2013-08-19 12:47:00,79.5,68.9,29.99,SSW,194,7.0,13.0,70,0.00,,SCT250,0.00,VWS V14.01,2013-08-19 17:47:00,
2013-08-19 12:52:00,79.8,68.3,29.99,South,177,11.0,18.0,68,0.00,,SCT250,0.00,VWS V14.01,2013-08-19 17:52:00,
2013-08-19 12:57:00,79.2,67.3,29.98,South,180,11.0,16.0,67,0.00,,SCT250,0.00,VWS V14.01,2013-08-19 17:57:00,
2013-08-19 13:02:00,79.0,68.0,29.98,SSW,195,9.0,14.0,69,0.00,,SCT250,0.00,VWS V14.01,2013-08-19 18:02:00,
2013-08-19 13:07:00,79.4,68.3,29.98,South,174,10.0,16.0,69,0.00,,SCT250,0.00,VWS V14.01,2013-08-19 18:07:00,
2013-08-19 13:12:00,79.8,68.7,29.98,South,174,10.0,14.0,69,0.00,,SCT250,0.00,VWS V14.01,2013-08-19 18:12:00,
2013-08-19 13:17:00,79.8,69.6,29.97,SSW,198,4.0,10.0,71,0.00,,SCT250,0.00,VWS V14.01,2013-08-19 18:17:00,
2013-08-19 13:22:00,80.5,68.5,29.97,South,180,12.0,15.0,67,0.00,,SCT250,0.00,VWS V14.01,2013-08-19 18:22:00,
2013-08-19 13:27:00,80.5,69.4,29.97,South,175,12.0,17.0,69,0.00,,SCT250,0.00,VWS V14.01,2013-08-19 18:27:00,
2013-08-19 13:32:00,80.3,69.6,29.97,South,170,12.0,14.0,70,0.00,,SCT250,0.00,VWS V14.01,2013-08-19 18:32:00,
2013-08-19 13:37:00,80.7,69.2,29.97,SSW,201,10.0,11.0,68,0.00,,SCT250,0.00,VWS V14.01,2013-08-19 18:37:00,
2013-08-19 13:52:00,81.0,68.6,29.97,South,183,14.0,16.0,66,0.00,,SCT250,0.00,VWS V14.01,2013-08-19 18:52:00,
2013-08-19 13:57:00,81.3,68.4,29.97,SSW,204,10.0,14.0,65,0.00,,SCT250,0.00,VWS V14.01,2013-08-19 18:57:00,
2013-08-19 14:02:00,81.0,68.6,29.96,WSW,240,6.0,17.0,66,0.00,,SCT060,0.00,VWS V14.01,2013-08-19 19:02:00,
2013-08-19 14:07:00,81.2,68.8,29.96,SSW,193,8.0,9.0,66,0.00,,SCT060,0.00,VWS V14.01,2013-08-19 19:07:00,
2013-08-19 14:12:00,81.3,68.9,29.96,SSE,166,12.0,16.0,66,0.00,,SCT060,0.00,VWS V14.01,2013-08-19 19:12:00,
2013-08-19 14:17:00,81.1,69.1,29.96,SSE,147,11.0,17.0,67,0.00,,SCT060,0.00,VWS V14.01,2013-08-19 19:17:00,
2013-08-19 14:22:00,81.6,70.0,29.96,SSW,198,6.0,9.0,68,0.00,,SCT060,0.00,VWS V14.01,2013-08-19 19:22:00,
2013-08-19 14:27:00,81.8,69.8,29.96,SE,139,11.0,15.0,67,0.00,,SCT060,0.00,VWS V14.01,2013-08-19 19:27:00,
2013-08-19 14:33:00,81.6,69.2,29.95,South,169,11.0,11.0,66,0.00,,SCT060,0.00,VWS V14.01,2013-08-19 19:33:00,
2013-08-19 14:38:00,81.7,68.8,29.95,SSW,193,7.0,16.0,65,0.00,,SCT060,0.00,VWS V14.01,2013-08-19 19:38:00,
2013-08-19 14:43:00,81.6,69.2,29.95,South,178,6.0,13.0,66,0.00,,FEW040,0.00,VWS V14.01,2013-08-19 19:43:00,
2013-08-19 14:48:00,81.5,69.1,29.95,SSW,206,8.0,14.0,66,0.00,,FEW040,0.00,VWS V14.01,2013-08-19 19:48:00,
2013-08-19 14:53:00,81.4,69.4,29.95,South,187,15.0,15.0,67,0.00,,FEW040,0.00,VWS V14.01,2013-08-19 19:53:00,
2013-08-19 14:58:00,81.6,69.2,29.95,SSE,166,17.0,17.0,66,0.00,,FEW040,0.00,VWS V14.01,2013-08-19 19:58:00,
2013-08-19 15:03:00,81.4,69.4,29.94,South,170,7.0,12.0,67,0.00,,FEW040,0.00,VWS V14.01,2013-08-19 20:03:00,
2013-08-19 15:08:00,81.4,69.8,29.94,SSW,193,10.0,15.0,68,0.00,,FEW040,0.00,VWS V14.01,2013-08-19 20:08:00,
2013-08-19 15:13:00,81.0,68.6,29.94,South,170,13.0,16.0,66,0.00,,FEW040,0.00,VWS V14.01,2013-08-19 20:13:00,
2013-08-19 15:18:00,81.1,68.7,29.94,SSW,197,10.0,14.0,66,0.00,,FEW040,0.00,VWS V14.01,2013-08-19 20:18:00,
2013-08-19 15:23:00,81.4,68.5,29.94,SW,217,6.0,16.0,65,0.00,,FEW040,0.00,VWS V14.01,2013-08-19 20:23:00,
2013-08-19 15:28:00,81.7,68.8,29.93,SSW,209,8.0,11.0,65,0.00,,FEW040,0.00,VWS V14.01,2013-08-19 20:28:00,
2013-08-19 15:33:00,82.1,70.1,29.93,South,189,10.0,10.0,67,0.00,,FEW040,0.00,VWS V14.01,2013-08-19 20:33:00,
2013-08-19 15:38:00,81.9,69.4,29.93,SSW,194,7.0,18.0,66,0.00,,FEW040,0.00,VWS V14.01,2013-08-19 20:38:00,
2013-08-19 15:43:00,81.8,68.4,29.93,SW,222,5.0,17.0,64,0.00,,FEW040,0.00,VWS V14.01,2013-08-19 20:43:00,
2013-08-19 15:48:00,82.1,68.7,29.93,SSW,201,7.0,13.0,64,0.00,,FEW040,0.00,VWS V14.01,2013-08-19 20:48:00,
2013-08-19 15:53:00,82.1,68.7,29.93,SSW,200,7.0,9.0,64,0.00,,FEW040,0.00,VWS V14.01,2013-08-19 20:53:00,
2013-08-19 15:58:00,82.2,69.3,29.92,SSW,192,6.0,11.0,65,0.00,,FEW040,0.00,VWS V14.01,2013-08-19 20:58:00,
2013-08-19 16:03:00,82.2,69.7,29.92,South,169,10.0,10.0,66,0.00,,FEW040,0.00,VWS V14.01,2013-08-19 21:03:00,
2013-08-19 16:08:00,82.3,69.8,29.92,SSW,201,9.0,15.0,66,0.00,,FEW040,0.00,VWS V14.01,2013-08-19 21:08:00,
2013-08-19 16:14:00,82.4,69.0,29.92,SSW,194,10.0,12.0,64,0.00,,FEW040,0.00,VWS V14.01,2013-08-19 21:14:00,
2013-08-19 16:19:00,82.5,70.0,29.92,South,183,12.0,14.0,66,0.00,,FEW040,0.00,VWS V14.01,2013-08-19 21:19:00,
2013-08-19 16:23:00,82.4,70.3,29.92,SW,226,6.0,8.0,67,0.00,,FEW040,0.00,VWS V14.01,2013-08-19 21:23:00,
2013-08-19 16:28:00,82.3,69.4,29.92,SW,218,8.0,13.0,65,0.00,,FEW040,0.00,VWS V14.01,2013-08-19 21:28:00,
2013-08-19 16:34:00,82.4,69.0,29.92,SW,222,4.0,10.0,64,0.00,,FEW040,0.00,VWS V14.01,2013-08-19 21:34:00,
2013-08-19 16:39:00,82.3,68.9,29.92,South,189,10.0,13.0,64,0.00,,FEW040,0.00,VWS V14.01,2013-08-19 21:39:00,
2013-08-19 16:44:00,82.2,69.3,29.92,SSW,203,7.0,9.0,65,0.00,,SCT042,0.00,VWS V14.01,2013-08-19 21:44:00,
2013-08-19 16:49:00,82.4,69.9,29.92,South,185,9.0,13.0,66,0.00,,SCT042,0.00,VWS V14.01,2013-08-19 21:49:00,
2013-08-19 17:15:00,82.1,69.2,29.91,SW,214,8.0,14.0,65,0.00,,SCT042,0.00,VWS V14.01,2013-08-19 22:15:00,
2013-08-19 17:20:00,82.1,69.2,29.92,SSW,193,10.0,10.0,65,0.00,,SCT042,0.00,VWS V14.01,2013-08-19 22:20:00,
2013-08-19 17:25:00,81.9,69.0,29.92,SW,220,8.0,12.0,65,0.00,,SCT042,0.00,VWS V14.01,2013-08-19 22:25:00,
2013-08-19 17:30:00,81.6,68.7,29.92,South,187,10.0,16.0,65,0.00,,SCT042,0.00,VWS V14.01,2013-08-19 22:30:00,
2013-08-19 17:35:00,81.8,69.3,29.91,South,170,4.0,11.0,66,0.00,,SCT042,0.00,VWS V14.01,2013-08-19 22:35:00,
2013-08-19 17:40:00,82.1,70.1,29.91,South,182,5.0,10.0,67,0.00,,SCT042,0.00,VWS V14.01,2013-08-19 22:40:00,
2013-08-19 17:45:00,82.0,69.5,29.91,SSW,205,6.0,11.0,66,0.00,,SCT042,0.00,VWS V14.01,2013-08-19 22:45:00,
2013-08-19 17:50:00,81.9,69.4,29.91,South,179,7.0,13.0,66,0.00,,SCT042,0.00,VWS V14.01,2013-08-19 22:50:00,
2013-08-19 17:55:00,81.8,69.3,29.91,South,190,12.0,15.0,66,0.00,,SCT042,0.00,VWS V14.01,2013-08-19 22:55:00,
2013-08-19 18:00:00,81.4,69.4,29.91,South,184,7.0,12.0,67,0.00,,SCT042,0.00,VWS V14.01,2013-08-19 23:00:00,
2013-08-19 18:05:00,81.3,69.7,29.91,South,185,10.0,15.0,68,0.00,,SCT042,0.00,VWS V14.01,2013-08-19 23:05:00,
2013-08-19 18:10:00,81.2,69.6,29.91,SSE,166,6.0,9.0,68,0.00,,SCT042,0.00,VWS V14.01,2013-08-19 23:10:00,
2013-08-19 18:15:00,81.0,69.4,29.91,South,174,11.0,11.0,68,0.00,,SCT042,0.00,VWS V14.01,2013-08-19 23:15:00,
2013-08-19 18:20:00,80.8,69.3,29.91,SSE,160,5.0,13.0,68,0.00,,SCT042,0.00,VWS V14.01,2013-08-19 23:20:00,
2013-08-19 18:25:00,80.7,69.6,29.91,SSE,157,7.0,12.0,69,0.00,,SCT042,0.00,VWS V14.01,2013-08-19 23:25:00,
2013-08-19 18:30:00,80.5,69.4,29.91,South,176,8.0,11.0,69,0.00,,SCT042,0.00,VWS V14.01,2013-08-19 23:30:00,
2013-08-19 18:35:00,80.4,69.7,29.90,South,188,8.0,8.0,70,0.00,,SCT042,0.00,VWS V14.01,2013-08-19 23:35:00,
2013-08-19 18:41:00,80.3,69.6,29.90,South,183,11.0,11.0,70,0.00,,SCT046,0.00,VWS V14.01,2013-08-19 23:41:00,
2013-08-19 18:46:00,80.2,69.5,29.90,South,174,7.0,10.0,70,0.00,,SCT046,0.00,VWS V14.01,2013-08-19 23:46:00,
2013-08-19 18:51:00,80.0,69.3,29.90,SSE,167,6.0,10.0,70,0.00,,SCT046,0.00,VWS V14.01,2013-08-19 23:51:00,
2013-08-19 18:56:00,79.9,69.7,29.90,SE,146,8.0,10.0,71,0.00,,SCT046,0.00,VWS V14.01,2013-08-19 23:56:00,
2013-08-19 19:01:00,79.7,69.5,29.90,South,179,9.0,11.0,71,0.00,,SCT046,0.00,VWS V14.01,2013-08-20 00:01:00,
2013-08-19 19:06:00,79.6,69.8,29.90,SSE,166,8.0,9.0,72,0.00,,SCT046,0.00,VWS V14.01,2013-08-20 00:06:00,
2013-08-19 19:11:00,79.4,69.6,29.90,SSE,156,6.0,7.0,72,0.00,,FEW043,0.00,VWS V14.01,2013-08-20 00:11:00,
2013-08-19 19:16:00,79.1,69.7,29.90,South,177,4.0,7.0,73,0.00,,FEW043,0.00,VWS V14.01,2013-08-20 00:16:00,
2013-08-19 19:21:00,78.7,69.7,29.89,South,174,5.0,7.0,74,0.00,,FEW043,0.00,VWS V14.01,2013-08-20 00:21:00,
2013-08-19 19:26:00,78.4,69.8,29.90,SSE,164,7.0,7.0,75,0.00,,FEW043,0.00,VWS V14.01,2013-08-20 00:26:00,
2013-08-19 19:31:00,78.2,69.6,29.89,South,180,5.0,7.0,75,0.00,,FEW043,0.00,VWS V14.01,2013-08-20 00:31:00,
2013-08-19 19:36:00,78.0,69.4,29.89,SSE,157,5.0,7.0,75,0.00,,FEW043,0.00,VWS V14.01,2013-08-20 00:36:00,
2013-08-19 19:41:00,77.9,69.7,29.90,South,171,3.0,7.0,76,0.00,,FEW043,0.00,VWS V14.01,2013-08-20 00:41:00,
2013-08-19 19:46:00,77.6,69.4,29.90,South,175,4.0,6.0,76,0.00,,FEW043,0.00,VWS V14.01,2013-08-20 00:46:00,
2013-08-19 19:51:00,77.4,69.2,29.90,South,177,5.0,6.0,76,0.00,,FEW043,0.00,VWS V14.01,2013-08-20 00:51:00,
2013-08-19 19:56:00,76.9,69.2,29.90,South,175,5.0,5.0,77,0.00,,FEW043,0.00,VWS V14.01,2013-08-20 00:56:00,
2013-08-19 20:01:00,76.5,69.1,29.90,SSE,162,5.0,5.0,78,0.00,,FEW043,0.00,VWS V14.01,2013-08-20 01:01:00,
2013-08-19 20:06:00,76.2,69.2,29.90,South,176,2.0,5.0,79,0.00,,FEW043,0.00,VWS V14.01,2013-08-20 01:06:00,
2013-08-19 20:11:00,76.0,69.0,29.90,SSE,168,4.0,4.0,79,0.00,,FEW043,0.00,VWS V14.01,2013-08-20 01:11:00,
2013-08-19 20:16:00,76.0,69.0,29.90,South,172,3.0,4.0,79,0.00,,FEW043,0.00,VWS V14.01,2013-08-20 01:16:00,
2013-08-19 20:21:00,75.6,69.0,29.90,South,173,4.0,4.0,80,0.00,,FEW043,0.00,VWS V14.01,2013-08-20 01:21:00,
2013-08-19 20:26:00,75.2,69.0,29.90,South,176,3.0,4.0,81,0.00,,FEW043,0.00,VWS V14.01,2013-08-20 01:26:00,
2013-08-19 20:31:00,75.1,68.9,29.90,South,170,2.0,4.0,81,0.00,,FEW043,0.00,VWS V14.01,2013-08-20 01:31:00,
2013-08-19 20:36:00,74.9,69.0,29.90,SE,145,4.0,5.0,82,0.00,,FEW043,0.00,VWS V14.01,2013-08-20 01:36:00,
2013-08-19 20:41:00,74.7,68.8,29.90,SSE,168,3.0,5.0,82,0.00,,FEW043,0.00,VWS V14.01,2013-08-20 01:41:00,
2013-08-19 20:46:00,74.4,68.6,29.90,South,174,5.0,6.0,82,0.00,,FEW043,0.00,VWS V14.01,2013-08-20 01:46:00,
2013-08-19 20:51:00,74.2,68.7,29.90,South,174,4.0,6.0,83,0.00,,FEW043,0.00,VWS V14.01,2013-08-20 01:51:00,
2013-08-19 20:56:00,74.0,68.5,29.91,SE,145,4.0,6.0,83,0.00,,FEW043,0.00,VWS V14.01,2013-08-20 01:56:00,
2013-08-19 21:01:00,73.8,68.7,29.91,SSE,164,5.0,5.0,84,0.00,,FEW043,0.00,VWS V14.01,2013-08-20 02:01:00,
2013-08-19 21:06:00,73.7,68.6,29.91,South,183,5.0,6.0,84,0.00,,FEW043,0.00,VWS V14.01,2013-08-20 02:06:00,
2013-08-19 21:11:00,73.5,68.4,29.91,South,184,5.0,8.0,84,0.00,,FEW043,0.00,VWS V14.01,2013-08-20 02:11:00,
2013-08-19 21:16:00,73.4,68.3,29.91,South,177,5.0,6.0,84,0.00,,FEW043,0.00,VWS V14.01,2013-08-20 02:16:00,
2013-08-19 21:21:00,73.3,68.2,29.91,South,175,5.0,7.0,84,0.00,,FEW043,0.00,VWS V14.01,2013-08-20 02:21:00,
2013-08-19 21:26:00,73.3,68.2,29.92,South,175,4.0,6.0,84,0.00,,FEW043,0.00,VWS V14.01,2013-08-20 02:26:00,
2013-08-19 21:31:00,73.2,68.1,29.92,South,172,4.0,6.0,84,0.00,,FEW043,0.00,VWS V14.01,2013-08-20 02:31:00,
2013-08-19 21:36:00,73.0,67.9,29.92,South,178,5.0,6.0,84,0.00,,FEW043,0.00,VWS V14.01,2013-08-20 02:36:00,
2013-08-19 21:41:00,72.9,67.8,29.92,SSE,151,5.0,7.0,84,0.00,,FEW250,0.00,VWS V14.01,2013-08-20 02:41:00,
2013-08-19 21:46:00,72.9,67.8,29.92,South,173,3.0,5.0,84,0.00,,FEW250,0.00,VWS V14.01,2013-08-20 02:46:00,
2013-08-19 21:51:00,72.9,67.8,29.92,South,180,5.0,6.0,84,0.00,,FEW250,0.00,VWS V14.01,2013-08-20 02:51:00,
2013-08-19 21:56:00,72.9,67.4,29.92,SSE,166,4.0,7.0,83,0.00,,FEW250,0.00,VWS V14.01,2013-08-20 02:56:00,
2013-08-19 22:01:00,72.8,67.3,29.92,South,178,6.0,6.0,83,0.00,,FEW250,0.00,VWS V14.01,2013-08-20 03:01:00,
2013-08-19 22:06:00,72.8,67.7,29.92,South,169,5.0,6.0,84,0.00,,FEW250,0.00,VWS V14.01,2013-08-20 03:06:00,
2013-08-19 22:11:00,72.6,67.5,29.92,South,174,3.0,5.0,84,0.00,,FEW250,0.00,VWS V14.01,2013-08-20 03:11:00,
2013-08-19 22:16:00,72.4,67.3,29.92,South,172,2.0,5.0,84,0.00,,FEW250,0.00,VWS V14.01,2013-08-20 03:16:00,
2013-08-19 22:21:00,72.2,67.1,29.92,SSE,160,3.0,5.0,84,0.00,,FEW250,0.00,VWS V14.01,2013-08-20 03:21:00,
2013-08-19 22:26:00,72.2,67.1,29.93,South,174,4.0,5.0,84,0.00,,FEW250,0.00,VWS V14.01,2013-08-20 03:26:00,
2013-08-19 22:31:00,72.1,67.0,29.93,SSE,166,3.0,5.0,84,0.00,,FEW250,0.00,VWS V14.01,2013-08-20 03:31:00,
2013-08-19 22:36:00,72.1,67.0,29.93,South,179,4.0,5.0,84,0.00,,FEW250,0.00,VWS V14.01,2013-08-20 03:36:00,
2013-08-19 22:41:00,72.0,66.9,29.93,South,181,4.0,5.0,84,0.00,,FEW048,0.00,VWS V14.01,2013-08-20 03:41:00,
2013-08-19 22:46:00,71.9,67.2,29.93,South,176,5.0,5.0,85,0.00,,FEW048,0.00,VWS V14.01,2013-08-20 03:46:00,
2013-08-19 22:52:00,71.9,67.2,29.93,South,176,5.0,5.0,85,0.00,,FEW048,0.00,VWS V14.01,2013-08-20 03:52:00,
2013-08-19 22:57:00,71.8,67.1,29.93,South,172,2.0,6.0,85,0.00,,FEW048,0.00,VWS V14.01,2013-08-20 03:57:00,
2013-08-19 23:01:00,71.7,66.9,29.93,South,187,5.0,6.0,85,0.00,,FEW048,0.00,VWS V14.01,2013-08-20 04:01:00,
2013-08-19 23:02:00,71.7,66.9,29.93,South,183,4.0,5.0,85,0.00,,FEW048,0.00,VWS V14.01,2013-08-20 04:02:00,
2013-08-19 23:07:00,71.6,66.9,29.93,SSE,160,2.0,4.0,85,0.00,,FEW048,0.00,VWS V14.01,2013-08-20 04:07:00,
2013-08-19 23:12:00,71.4,66.7,29.93,South,170,4.0,5.0,85,0.00,,FEW048,0.00,VWS V14.01,2013-08-20 04:12:00,
2013-08-19 23:17:00,71.3,66.6,29.93,South,175,4.0,4.0,85,0.00,,FEW048,0.00,VWS V14.01,2013-08-20 04:17:00,
2013-08-19 23:22:00,71.3,66.6,29.93,South,176,3.0,4.0,85,0.00,,FEW048,0.00,VWS V14.01,2013-08-20 04:22:00,
2013-08-19 23:27:00,71.3,66.6,29.93,South,174,3.0,5.0,85,0.00,,FEW048,0.00,VWS V14.01,2013-08-20 04:27:00,
2013-08-19 23:32:00,71.3,66.6,29.93,South,170,5.0,6.0,85,0.00,,FEW048,0.00,VWS V14.01,2013-08-20 04:32:00,
2013-08-19 23:37:00,71.4,66.7,29.92,South,184,5.0,6.0,85,0.00,,FEW048,0.00,VWS V14.01,2013-08-20 04:37:00,
2013-08-19 23:42:00,71.6,66.5,29.92,South,174,6.0,8.0,84,0.00,,CLR,0.00,VWS V14.01,2013-08-20 04:42:00,
2013-08-19 23:47:00,71.8,66.7,29.92,South,170,4.0,7.0,84,0.00,,CLR,0.00,VWS V14.01,2013-08-20 04:47:00,
2013-08-19 23:52:00,71.8,66.4,29.92,South,174,6.0,7.0,83,0.00,,CLR,0.00,VWS V14.01,2013-08-20 04:52:00,
2013-08-19 23:57:00,71.8,66.4,29.92,South,179,7.0,7.0,83,0.00,,CLR,0.00,VWS V14.01,2013-08-20 04:57:00,